CZ-3C R/B, 65487

Orbit data source: Space-Track

CZ-3C R/B, 65487 is space debris in HEO originally from a launch on Fri, 05 Sep 2025 UTC launched from the Xichang Space Center, China (XSC). Debris objects in space refer to the collection of defunct objects orbiting the Earth. Examples of debris include non-operational satellites, rocket bodies, and fragments generated from explosions, collisions, or faulty payload assembly.

Loading next visibility...
Identifier
65487, 2025-196B
Orbit
HEO
Country
Flag of CNCN / PRC
Related business
Manufacturer
CALT
Mission
Spacecraft
Bus & Motor
CZ-3C STAGE 3, Unknown motor
Mass
~2,800 kg wet, ~2,800 kg dry
Launch date (UTC)
2025-09-05 (8 months ago)
Launch vehicle
Unknown
Launch site
Xichang Space Center, China (XSC)
Object type
Payload
Rocket body
Debris
Shape & HBR
Cyl + 1 Nozzle, 8.0 m
Radar Cross Section
32.704 m², Large (>1 m²)

Expand to show TLE details & history
Last TLE update: 1 day ago

TLE from 1 day ago
0 CZ-3C R/B
1 65487U 25196B   26132.49837968  .00005138  00000-0  10566-2 0  9998
2 65487  28.3695 269.0347 6935803 311.6836   6.9224  2.73207230  6799
Epoch: 2026-05-12T11:57Z
TLE epoch observation values (Epoch: 2026-05-12T11:57:40.004Z)
Latitude
-0.00077°
Longitude
-140.73452°
Altitude
1,282.171 km
Speed
9.253 km/s
True Right ascension
17h 55m 48s
True Declination
0° 00' 03"
Sunlit
Object was in full shadow at epoch
Visualization orbit readout
Latitude
Unknown
Longitude
Unknown
Altitude
Unknown
Speed
Unknown
Apparent Right ascension
Unknown
Apparent Declination
Unknown
Sunlit
N/A
Visualization observer readout
Local Sidereal Time
23:50:12
Azimuth
Unknown
Elevation
Unknown
Doppler factor
Unknown
Orbital elements
Apogee altitude
30,233.477 km
Perigee altitude
246.007 km
Semi-major axis
21,617.879 km
Eccentricity
0.69358
Inclination
28.3695°
RAAN
269.0347°
Arg. of periapsis
311.6836°
True anomaly
48.03132°
Mean anomaly
6.9224°
Eccentric anomaly
21.46298°
Mean motion
0.68285 °/min
Orbital period
527.2 mins
BSTAR
0.0010566
Loading maneuver chart data...
Computing Atmospheric mass density...
Loading historical data...
Loading historical data...
Loading historical data...
Loading historical data...
Loading historical data...
Loading historical data...
Loading historical data...
Other satellites on launch #196 in the year 2025 (2025-09-05 UTC)

Documentation

Showing up to 5 results
|